If you wish to contribute or participate in the discussions about articles you are invited to join SKYbrary as a registered user

 Actions

Leon Airport

From SKYbrary Wiki

LELN
Airport
ICAO: LELN – IATA: LEN
Summary
Name Leon Airport
Region Europe
Territory Spain ES.gif
Location , Castilla y Leon
Serving Leon
Elevation 916.229 m
3,006 ft
3,006 ft916.229 m
Type medium airport
Coordinates 42° 35' 20.40" N, 5° 39' 20.00" W
Runways
Designator Length Width Surface ROPS
5/23 2100 m6,889.764 ft
45 m147.638 ft
ASP /
6/24 1100 m3,608.924 ft
100 m328.084 ft
GRE /


METAR
Observation LELN 251430Z 26014G24KT 9999 FEW040 12/06 Q1019
Station Leon / Virgen Del Camino
Date/Time 25 February 2020 14:30:00
Wind direction 260°
Wind speed 14 kts
Lowest cloud amount few clouds
Temperature 12°C
Dew point 6°C
Humidity 66%
QNH 1019 hPa
Weather condition n/a